Weather History for Pullman, WA

Change the Weather History Date:

Saturday, November 3, 2012

  Actual Average Record
Temperature  
Mean Temperature 51 °F 41 °F  
Max Temperature 55 °F 49 °F 66 °F (1949)
Min Temperature 46 °F 33 °F 10 °F (1973)
Degree Days  
Heating Degree Days 14 24  
Month to date heating degree days 46 70  
Since 1 July heating degree days 851 976  
Cooling Degree Days 0 0  
Month to date cooling degree days 0 0  
Year to date cooling degree days 248 213  
Moisture  
Dew Point 43 °F    
Average Humidity 82    
Maximum Humidity 93    
Minimum Humidity 71    
Precipitation  
Precipitation T in 0.07 in 0.96 in (1959)
Month to date precipitation 0.23 0.20  
Year to date precipitation 18.54 13.23  
Sea Level Pressure  
Sea Level Pressure 30.14 in    
Wind  
Wind Speed 6 mph (ESE)    
Max Wind Speed 14 mph    
Max Gust Speed 17 mph    
Visibility 10 miles    
Events Rain    
T = Trace of Precipitation, MM = Missing Value Source: NWS Daily Summary

Daily Weather History Graph

Daily Weather History Graph

Search for Another Location

Airport:

Trip Planner

Search our weather history database for the weather conditions in past years. The results will help you decide how hot, cold, wet, or windy it might be!

Date:

Astronomy

Nov. 03, 2012 Rise Set
Actual Time 7:34 AM PDT 5:29 PM PDT
Civil Twilight 7:02 AM PDT 6:00 PM PDT
Nautical Twilight 6:26 AM PDT 6:36 PM PDT
Astronomical Twilight 5:51 AM PDT 7:12 PM PDT
Moon 9:08 PM PDT (11/3) 11:48 AM PDT (11/3)
Length of Visible Light 10h 58m
Length of Day
9h 54m
Waning Gibbous, 79% of the Moon is Illuminated
Nov 3
Waning Gibbous
Nov 6
Last Quarter
Nov 13
New
Nov 20
First Quarter
Nov 28
Full

Hourly Weather History & Observations

Time (PDT) Temp. Windchill Dew Point Humidity Pressure Visibility Wind Dir Wind Speed Gust Speed Precip Events Conditions
12:53 AM 48.0 °F - 42.1 °F 80% 30.07 in 10.0 mi East 10.4 mph - N/A   Overcast
1:53 AM 48.0 °F - 42.1 °F 80% 30.07 in 10.0 mi East 11.5 mph - N/A   Overcast
2:53 AM 48.0 °F - 42.1 °F 80% 30.07 in 10.0 mi East 11.5 mph - N/A   Overcast
3:53 AM 46.0 °F 40.2 °F 41.0 °F 83% 30.06 in 10.0 mi ESE 12.7 mph - N/A   Mostly Cloudy
4:53 AM 46.0 °F 40.2 °F 41.0 °F 83% 30.07 in 10.0 mi East 12.7 mph - N/A   Overcast
5:53 AM 46.0 °F 40.6 °F 41.0 °F 83% 30.09 in 10.0 mi East 11.5 mph - N/A   Overcast
6:53 AM 46.9 °F - 39.9 °F 77% 30.09 in 10.0 mi East 11.5 mph - N/A   Overcast
7:53 AM 46.9 °F - 39.9 °F 77% 30.11 in 9.0 mi East 4.6 mph - N/A   Overcast
8:53 AM 48.0 °F - 41.0 °F 77% 30.12 in 10.0 mi ENE 3.5 mph - N/A   Overcast
9:53 AM 48.9 °F - 41.0 °F 74% 30.13 in 10.0 mi East 6.9 mph - 0.00 in   Overcast
10:53 AM 50.0 °F - 42.1 °F 74% 30.15 in 7.0 mi ESE 5.8 mph - 0.00 in Rain Light Rain
11:53 AM 51.1 °F - 44.1 °F 77% 30.14 in 10.0 mi ESE 6.9 mph - 0.00 in   Overcast
12:53 PM 52.0 °F - 44.1 °F 74% 30.13 in 10.0 mi East 8.1 mph - N/A   Overcast
1:53 PM 52.0 °F - 44.1 °F 74% 30.13 in 10.0 mi ESE 8.1 mph - N/A   Overcast
2:53 PM 53.1 °F - 45.0 °F 74% 30.13 in 10.0 mi South 4.6 mph - 0.00 in   Overcast
3:53 PM 55.0 °F - 46.9 °F 74% 30.14 in 10.0 mi SSW 9.2 mph - N/A   Overcast
4:53 PM 53.1 °F - 48.0 °F 83% 30.17 in 9.0 mi WSW 9.2 mph - 0.00 in Rain Light Rain
5:53 PM 53.1 °F - 46.9 °F 80% 30.17 in 10.0 mi SW 6.9 mph - 0.00 in   Overcast
6:53 PM 51.1 °F - 46.0 °F 83% 30.20 in 10.0 mi Calm Calm - N/A   Scattered Clouds
7:53 PM 51.1 °F - 45.0 °F 80% 30.19 in 10.0 mi SW 5.8 mph - N/A   Scattered Clouds
8:53 PM 46.9 °F - 44.1 °F 90% 30.19 in 10.0 mi Calm Calm - N/A   Clear
9:53 PM 48.9 °F - 44.1 °F 83% 30.21 in 10.0 mi SSW 3.5 mph - N/A   Scattered Clouds
10:53 PM 50.0 °F - 44.1 °F 80% 30.22 in 10.0 mi Calm Calm - N/A   Scattered Clouds
11:53 PM 48.9 °F - 44.1 °F 83% 30.24 in 10.0 mi Calm Calm - N/A   Overcast